Location: Krasnoyarskiy Pitomnik
(51.1333°N, 71.6167°E)
Time: 10:34:35
(UTC+00:00)

Altair - Pass Details

Date: 13 April 2024
Orbit: 1502 x 1682 km, 47.2° (Epoch: 23 May)

Event Time Altitude Azimuth Distance (km) Brightness Sun altitude
Rises 20:35:47 0° 280° (W) 4,809 10.0 -26.9°
Reaches altitude 10° 20:39:00 10° 277° (W) 3,798 9.4 -26.7°
Maximum altitude 20:48:16 57° 202° (SSW) 1,782 7.4 -26.1°
Drops below altitude 10° 20:57:13 10° 128° (SE) 3,671 9.4 -25.4°
Sets 21:00:16 0° 124° (SE) 4,639 10.0 -25.2°
